CT1OY Oeiras PT current weather conditions

sailwx.info

Wind from 334 at 3 knots

Air temperature 23.3° C
Dewpoint 16.6° C

Last reported at 2014-Oct-01 19:42 UTC.
Time now 2014-Oct-01 20:18 UTC

Location: N 38°44' W 009°17'.
View on Google Maps.

See reports from other nearby stations

  
Tides and Currents Weather Stations Pressure Air Temp Water Temp Dewpoint Dewpoint Depression Visibility Wind Speed Wind Dir Waves Ship Positions
date/time (UTC)wind fromknots sea level pressurealtimeterstation pressurevisibilityair tempwater tempwave heightnotes
2014-Oct-01 19:42 334 3 23.3
2014-Oct-01 19:12 007 1 23.9
2014-Oct-01 19:02 294 1 gusting 10 23.9
2014-Oct-01 18:52 323 0 24.4
2014-Oct-01 18:42 360 3 24.4
2014-Oct-01 18:32 288 2 25.0
2014-Oct-01 18:22 258 1 25.0
2014-Oct-01 18:12 283 2 25.6
2014-Oct-01 18:02 350 2 25.6
2014-Oct-01 17:52 330 0 26.1
2014-Oct-01 17:42 297 0 26.1
2014-Oct-01 17:32 298 0 26.7
2014-Oct-01 17:22 347 5 26.7
2014-Oct-01 17:12 293 1 gusting 10 26.7
2014-Oct-01 17:02 342 1 27.2
2014-Oct-01 16:52 300 2 27.2
2014-Oct-01 16:32 349 0 27.8
2014-Oct-01 16:22 272 3 28.9
2014-Oct-01 16:12 301 29.4
2014-Oct-01 16:02 055 30.0
2014-Oct-01 15:52 339 2 30.0
2014-Oct-01 15:42 048 0 29.4
2014-Oct-01 15:22 020 29.4
2014-Oct-01 15:02 080 2 29.4
2014-Oct-01 14:52 046 5 29.4
2014-Oct-01 14:42 353 0 29.4
2014-Oct-01 14:32 075 0 29.4
2014-Oct-01 14:22 044 4 29.4
2014-Oct-01 14:12 092 8 29.4
2014-Oct-01 14:02 070 2 28.9
2014-Oct-01 13:52 087 4 28.9
2014-Oct-01 13:32 025 4 28.9
2014-Oct-01 13:22 049 2 28.9
2014-Oct-01 13:12 064 1 28.3
2014-Oct-01 13:02 063 5 28.3
2014-Oct-01 12:52 062 1 28.3
2014-Oct-01 12:42 076 0 28.3
2014-Oct-01 12:32 049 1 28.3
2014-Oct-01 12:22 291 1 28.3
2014-Oct-01 12:12 008 3 28.3
2014-Oct-01 12:02 035 3 28.3
2014-Oct-01 11:52 014 0 27.8
2014-Oct-01 11:42 039 0 27.8
2014-Oct-01 11:22 053 4 27.2
2014-Oct-01 11:12 045 3 26.7
2014-Oct-01 10:32 106 1 25.6
2014-Oct-01 10:12 051 3 gusting 10 25.0
2014-Oct-01 10:02 064 0 gusting 10 25.0
2014-Oct-01 09:52 328 25.0
2014-Oct-01 09:32 352 24.4
2014-Oct-01 09:22 113 5 gusting 11 23.9
2014-Oct-01 09:12 034 8 gusting 10 23.9
2014-Oct-01 09:02 037 5 23.3
2014-Oct-01 08:42 333 1 21.7
2014-Oct-01 08:32 318 0 21.1
2014-Oct-01 08:22 338 19.4
2014-Oct-01 08:12 289 18.9
2014-Oct-01 08:02 315 18.3
2014-Oct-01 07:52 281 1 18.3
2014-Oct-01 07:22 314 1 17.2
2014-Oct-01 07:12 287 16.7
2014-Oct-01 07:02 320 0 16.7
2014-Oct-01 06:52 314 4 16.7
2014-Oct-01 06:42 068 0 16.7
2014-Oct-01 06:32 036 3 16.7
2014-Oct-01 06:12 322 1 16.7
2014-Oct-01 06:02 323 16.7
2014-Oct-01 05:42 334 16.7
2014-Oct-01 05:32 271 16.7
2014-Oct-01 05:12 294 17.2
2014-Oct-01 05:02 355 0 17.2
2014-Oct-01 04:52 013 17.2
2014-Oct-01 04:32 027 0 17.2
2014-Oct-01 04:12 016 1 17.8
2014-Oct-01 04:02 299 0 17.8
2014-Oct-01 03:52 315 3 18.3
2014-Oct-01 03:42 006 1 18.3
2014-Oct-01 03:32 308 1 18.3
2014-Oct-01 03:22 339 1 18.3
2014-Oct-01 03:12 286 4 18.3
2014-Oct-01 02:52 004 0 18.3
2014-Oct-01 02:42 342 1 18.3
2014-Oct-01 02:32 352 18.3
2014-Oct-01 02:02 310 18.3
2014-Oct-01 01:52 307 18.3
2014-Oct-01 01:42 280 18.3
2014-Oct-01 01:32 027 1 18.3
2014-Oct-01 00:42 352 18.3
2014-Oct-01 00:02 291 1 18.9
2014-Sep-30 23:42 308 18.9
2014-Sep-30 23:32 323 18.9
2014-Sep-30 23:22 306 0 18.9
2014-Sep-30 23:12 274 1 18.9
2014-Sep-30 23:02 260 18.9
2014-Sep-30 22:42 297 2 19.4
2014-Sep-30 22:32 338 1 19.4
2014-Sep-30 22:22 240 18.9
2014-Sep-30 21:42 032 0 18.9
2014-Sep-30 21:22 321 3 18.9
2014-Sep-30 21:12 262 0 19.4
2014-Sep-30 21:02 261 0 19.4
2014-Sep-30 20:42 282 4 19.4
2014-Sep-30 20:32 307 5 19.4
2014-Sep-30 20:12 273 1 gusting 11 19.4
2014-Sep-30 19:42 318 2 gusting 10 20.0
2014-Sep-30 19:32 287 0 20.0
2014-Sep-30 19:12 234 2 20.6
2014-Sep-30 19:02 283 1 21.1
2014-Sep-30 18:52 276 0 21.7
2014-Sep-30 18:32 295 2 22.2
2014-Sep-30 17:52 338 23.3
2014-Sep-30 17:42 309 2 23.9
2014-Sep-30 17:32 015 0 23.9
2014-Sep-30 17:12 350 1 23.9
2014-Sep-30 16:42 315 23.9
2014-Sep-30 16:32 304 2 23.9
2014-Sep-30 16:22 360 1 23.9
2014-Sep-30 16:12 300 1 23.3
2014-Sep-30 16:02 298 1 23.3
2014-Sep-30 15:52 290 3 23.3
2014-Sep-30 15:42 270 4 23.9
2014-Sep-30 15:32 308 25.0
2014-Sep-30 15:22 001 25.0
2014-Sep-30 15:12 327 25.0
2014-Sep-30 15:02 335 25.6
2014-Sep-30 14:52 065 25.6
2014-Sep-30 14:42 053 25.0
2014-Sep-30 14:22 025 24.4
2014-Sep-30 14:12 098 0 24.4
2014-Sep-30 13:52 095 0 24.4
2014-Sep-30 13:42 097 0 24.4
2014-Sep-30 13:32 109 1 24.4
2014-Sep-30 13:12 339 24.4
2014-Sep-30 12:52 075 23.9
2014-Sep-30 12:42 041 0 23.9
2014-Sep-30 12:22 065 0 23.9
2014-Sep-30 12:12 044 23.3
2014-Sep-30 12:02 063 23.3
2014-Sep-30 11:52 004 23.3
2014-Sep-30 11:42 016 23.3
2014-Sep-30 11:32 343 0 23.3
2014-Sep-30 11:02 358 0 22.2
2014-Sep-30 10:52 025 3 gusting 11 22.2
2014-Sep-30 10:42 303 0 22.2
2014-Sep-30 10:22 302 21.1
2014-Sep-30 10:12 323 21.1
2014-Sep-30 10:02 019 0 20.6
2014-Sep-30 09:52 314 20.0
2014-Sep-30 09:42 299 20.0
2014-Sep-30 09:22 309 2 19.4
2014-Sep-30 09:02 312 1 gusting 10 18.9
2014-Sep-30 08:42 354 2 gusting 10 18.9
2014-Sep-30 08:32 309 2 18.3
2014-Sep-30 08:22 279 4 17.8
2014-Sep-30 07:52 316 2 gusting 10 17.2
2014-Sep-30 07:42 233 16.7
2014-Sep-30 07:32 290 0 16.7
2014-Sep-30 07:22 328 2 16.7
2014-Sep-30 06:52 319 2 16.1
2014-Sep-30 06:42 309 3 16.1
2014-Sep-30 06:22 248 4 16.1
2014-Sep-30 06:02 005 2 16.1
2014-Sep-30 04:12 283 3 16.1
2014-Sep-30 04:02 283 0 16.1
2014-Sep-30 03:52 279 0 16.1
2014-Sep-30 03:32 300 2 16.1
2014-Sep-30 03:22 301 1 16.1
2014-Sep-30 02:52 260 16.7
2014-Sep-30 01:52 295 0 16.1
2014-Sep-30 01:42 307 16.1
2014-Sep-30 01:22 015 16.1
2014-Sep-30 00:52 339 16.1
2014-Sep-30 00:42 321 16.7
2014-Sep-30 00:32 288 16.7
2014-Sep-30 00:22 344 0 16.7
2014-Sep-30 00:12 333 16.7
2014-Sep-30 00:02 299 0 16.7
2014-Sep-29 23:52 334 16.7
2014-Sep-29 23:42 008 0 16.7
2014-Sep-29 23:32 334 16.7
2014-Sep-29 23:02 004 4 17.2
2014-Sep-29 22:52 293 17.2
2014-Sep-29 22:32 316 17.2
2014-Sep-29 22:12 291 0 17.2
2014-Sep-29 21:52 302 1 17.2
2014-Sep-29 21:42 020 3 17.8
2014-Sep-29 21:32 317 17.8
2014-Sep-29 21:22 266 4 17.8
2014-Sep-29 21:12 300 1 17.8
2014-Sep-29 21:02 051 2 gusting 11 17.8
2014-Sep-29 20:52 288 17.8
2014-Sep-29 20:42 270 0 17.8
2014-Sep-29 20:32 323 18.3
2014-Sep-29 20:12 310 4 18.3